Regional Weather Roundup
Issued by NWS

Home | Current Version | Previous Version | Graphics & Text | Print | Product List | Glossary On
Versions: 1 2 3 4 5 6 7 8 9 10 11 12 13 14 15 16 17 18 19 20 21 22 23 24 25 26 27 28 29 30 31 32 33 34 35 36 37 38 39 40 41 42 43 44 45 46 47 48 49 50
000
ASUS45 KABQ 170601
RWRNM
NEW MEXICO REGIONAL WEATHER ROUNDUP
NATIONAL WEATHER SERVICE ALBUQUERQUE NM
1100 PM MST SAT DEC 16 2017

NOTE: "FAIR" MEANS FEW OR NO CLOUDS BELOW 12,000 FEET AGL WITH NO
       SIGNIFICANT WEATHER OR OBSTRUCTIONS TO VISION.

      THIS PRODUCT IS RELEASED AS TWO VERSIONS.  ONE VERSION NEAR
      THE TOP OF THE HOUR CONTAINING PRELIMINARY DATA FROM ALBUQUERQUE
      AND OTHER STATIONS.  A FINAL VERSION WITH ADDITIONAL DATA IS
      ISSUED ABOUT 10 MINUTES AFTER THE HOUR.

NMZ501-503-504-510>518-170700-
NORTHWEST PLATEAU/NORTHCENTRAL MOUNTAINS

CITY           SKY/WX    TMP DP  RH WIND       PRES   REMARKS
FARMINGTON     FAIR      32  11  41 W5        29.87R WCI  27
6HR MIN TEMP:  32; 6HR MAX TEMP:  40;

LOS ALAMOS     FAIR      34   0  22 CALM      29.88R
SANTA FE       FAIR      31  16  54 E3        29.88R
6HR MIN TEMP:  29; 6HR MAX TEMP:  38;

TAOS           FAIR      20   6  55 N7        29.90R WCI  11
ANGEL FIRE     FAIR      12   5  75 S3        29.89R

$$
NMZ402-403-502-505>509-170700-
WESTCENTRAL MOUNTAINS/SOUTHWEST MOUNTAINS

CITY           SKY/WX    TMP DP  RH WIND       PRES   REMARKS
GALLUP         FAIR      38  10  31 CALM      29.92R
6HR MIN TEMP:  37; 6HR MAX TEMP:  44;

GRANTS         MOCLDY    39   2  21 N9        29.91R WCI  33
SILVER CITY    FAIR      34  12  40 N10       29.94S WCI  26

$$
NMZ407-409-411-412-170700-
SOUTHERN DESERTS

CITY           SKY/WX    TMP DP  RH WIND       PRES   REMARKS
DEMING         FAIR      38  16  40 W8        29.94R WCI  32
6HR MIN TEMP:  37; 6HR MAX TEMP:  50;

LAS CRUCES     FAIR      41  26  55 CALM      29.95R
HOLLOMAN AFB   FAIR      40  22  48 SE9       29.93R WCI  33
ALAMOGORDO     FAIR      41  23  48 S10       29.92R
T OR C         FAIR      40  21  46 E3        29.90R
6HR MIN TEMP:  37; 6HR MAX TEMP:  50;


$$
NMZ519>523-170700-
CENTRAL VALLEYS/CENTRAL HIGHLANDS

CITY           SKY/WX    TMP DP  RH WIND       PRES   REMARKS
ALBUQUERQUE    MOCLDY    32  14  47 E9        29.89R WCI  24
6HR MIN TEMP:  32; 6HR MAX TEMP:  44;

MORIARTY ARPT  FAIR      17   6  59 N3        29.90R
6HR MIN TEMP:  17; 6HR MAX TEMP:  42;

CLINES CORNERS FAIR      21   9  59 W12       29.88R WCI   9
6HR MIN TEMP:  19; 6HR MAX TEMP:  38;

BELEN          FAIR      27  13  56 CALM      29.89R
6HR MIN TEMP:  27; 6HR MAX TEMP:  42;

SOCORRO        FAIR      32  15  50 SW6       29.90R WCI  26
6HR MIN TEMP:  30; 6HR MAX TEMP:  46;


$$
NMZ524>526-539-540-170700-
SOUTHCENTRAL MOUNTAINS

CITY           SKY/WX    TMP DP  RH WIND       PRES   REMARKS
RUIDOSO        NOT AVBL

$$
NMZ527>531-170700-
NORTHEAST HIGHLANDS/NORTHEAST PLAINS

CITY           SKY/WX    TMP DP  RH WIND       PRES   REMARKS
LAS VEGAS      FAIR      34   8  33 N6        29.83R WCI  29
6HR MIN TEMP:  29; 6HR MAX TEMP:  41;

RATON          FAIR      33  14  45 N16G28    29.82R WCI  23
6HR MIN TEMP:  33; 6HR MAX TEMP:  46;

CLAYTON        FAIR      35  15  44 NW17      29.79R WCI  25
6HR MIN TEMP:  27; 6HR MAX TEMP:  41;


$$
NMZ532>537-170700-
EASTCENTRAL PLAINS

CITY           SKY/WX    TMP DP  RH WIND       PRES   REMARKS
SANTA ROSA     FAIR      37   9  31 W6        29.80R WCI  33
TUCUMCARI      FAIR      32  15  49 W8        29.75R WCI  25
6HR MIN TEMP:  32; 6HR MAX TEMP:  50;

CANNON AFB     FAIR      29  29 100 S6        29.78F WCI  23
6HR MIN TEMP:  29; 6HR MAX TEMP:  47;

CLOVIS AIRPORT FAIR      26  23  88 S5        29.79S WCI  20

$$
NMZ028-029-538-170700-
SOUTHEAST PLAINS

CITY           SKY/WX    TMP DP  RH WIND       PRES   REMARKS
ROSWELL        FAIR      33  13  43 SW6       29.81R WCI  28
6HR MIN TEMP:  30; 6HR MAX TEMP:  53;

ARTESIA        FAIR      41  21  45 CALM      29.83R
CARLSBAD       FAIR      36  32  85 E3        29.84R
6HR MIN TEMP:  35; 6HR MAX TEMP:  50;

HOBBS          FAIR      34  32  93 SW9       29.83S WCI  26


$$



USA.gov is the U.S. government's official web portal to all federal, state and local government web resources and services.